Regional Weather Roundup
Issued by NWS Sterling, VA

Home | Current Version | Previous Version | Text Only | Print | Product List | Glossary On
Versions: 1 2 3 4 5 6 7 8 9 10 11 12 13 14 15 16 17 18 19 20 21 22 23 24 25 26 27 28
000
ASUS41 KLWX 260410
RWRLWX

REGIONAL WEATHER ROUNDUP
NATIONAL WEATHER SERVICE BALTIMORE MD/WASHINGTON DC
1200 AM EDT SUN OCT 26 2014

Note: "FAIR" indicates few or no clouds below 12,000 feet
with no significant weather and/or obstructions to visibility.
 TC=TEMPERATURE CELSIUS

 * =Non NWS site. Station does not report precipitation (e.g. rain,
    snow, etc.), thunder, or fog.

DCZ001-MDZ009-015-VAZ040>042-051-053>054-260500-
WASHINGTON METRO

CITY           SKY/WX    TMP DP  RH WIND       PRES   REMARKS
WASHINGTON NAT CLEAR     59  48  67 S6        29.72F
DULLES         CLEAR     53  44  71 S9        29.71F
ANDREWS AFB    CLEAR     55  44  67 SW6       29.71F
FT BELVOIR     CLEAR     47  45  93 CALM      29.72F
QUANTICO       CLEAR     54  47  77 W5        29.74F
COLLEGE PARK*  CLEAR     50  46  87 CALM      29.70F
LEESBURG*      CLEAR     63  50  63 SW7       29.71F
MANASSAS*      CLEAR     46  45  93 CALM      29.72F
GAITHERSBURG*  CLEAR     57  43  58 CALM      29.73F

$$

MDZ006>007-011-014-260500-
BALTIMORE METRO

CITY           SKY/WX    TMP DP  RH WIND       PRES   REMARKS
BWI AIRPORT    CLEAR     60  43  53 SW8       29.68F
MD SCIENCE CTR   N/A     60  43  53 MISG      29.68F
MARTIN STATE   CLEAR     61  45  55 CALM      29.68F
ANNAPOLIS      CLEAR     57  42  57 CALM      29.69F
FORT MEADE*    CLEAR     46  45  93 CALM      29.72F

$$

MDZ012-015-019>023-260500-
MARYLAND EASTERN SHORE

CITY           SKY/WX    TMP DP  RH WIND       PRES   REMARKS
OCEAN CITY     CLEAR     58  48  69 SW12      29.71F
SALISBURY      CLEAR     55  47  74 SW5       29.72F
BAY BRIDGE AP*   N/A     59  45  58 W6        29.69F
CAMBRIDGE*     CLEAR     59  45  58 SW6       29.71F
EASTON*        CLEAR     60  48  64 SW6       29.74F

$$

MDZ017>025-260500-
SOUTHERN MARYLAND

CITY           SKY/WX    TMP DP  RH WIND       PRES   REMARKS
PATUXENT RIVER CLEAR     59  43  55 VRB3      29.73S
ST INIGOES     CLEAR     60  44  55 SW7       29.73F
LEONARDTOWN*   CLEAR     57  43  58 SW6       29.74F

$$

MDZ003>005-260500-
NORTH CENTRAL MARYLAND

CITY           SKY/WX    TMP DP  RH WIND       PRES   REMARKS
FREDERICK*     MOCLDY    66  46  48 S6        29.71F
HAGERSTOWN APT CLEAR     63  49  60 SW7       29.68F
WESTMINSTER*   CLEAR     59  46  63 W5        29.67F

$$

MDZ501>502-260500-
WESTERN MARYLAND

CITY           SKY/WX    TMP DP  RH WIND       PRES   REMARKS
OAKLAND*       CLOUDY    52 N/A N/A W18G29    29.81R
CUMBERLAND*    CLEAR     66  50  55 W18G30    29.76S

$$

VAZ025>031-260500-
SHENANDOAH VALLEY

CITY           SKY/WX    TMP DP  RH WIND       PRES   REMARKS
WINCHESTER*    PTCLDY    64  43  45 W8        29.72S
FRONT ROYAL*   FAIR      63  46  55 SW5       29.72F
LURAY*         FAIR      63  46  55 S6        29.75F
NEW MARKET*    FAIR      56  46  68 CALM      29.75F
STAUNTON*      PTCLDY    58  46  65 SW3       29.81S
WAYNESBORO*    FAIR      60  47  61 SW8       29.80S

$$

WVZ021-048>050-054>055-260500-
EASTERN WEST VIRGINIA PANHANDLE

CITY           SKY/WX    TMP DP  RH WIND       PRES   REMARKS
MARTINSBURG    CLEAR     64  48  56 W13       29.70F
PETERSBURG*    PTCLDY    68  46  45 NW14G39   29.75S

$$

VAZ036>039-050-260500-
CENTRAL FOOTHILLS

CITY           SKY/WX    TMP DP  RH WIND       PRES   REMARKS
CHARLOTTESVILL CLEAR     64  46  52 SW6       29.75F
CULPEPER*      CLEAR     48  45  87 CALM      29.74F
ORANGE*        CLEAR     50  45  81 S3        29.76F
GORDONSVILLE*  FAIR      50  46  84 CALM      29.74F
WARRENTON*     FAIR      46  45  98 CALM      29.72F

$$

VAZ055>057-260500-
NORTH AND CENTRAL PIEDMONT

CITY           SKY/WX    TMP DP  RH WIND       PRES   REMARKS
FREDERICKSBRG* CLEAR     53  46  76 CALM      29.73F
STAFFORD*      CLEAR     49  43  80 CALM      29.77F

$$

NCZ024-NYZ072-PAZ021-071-VAZ022-071-260500-
OTHER REGIONAL OBSERVATIONS

CITY           SKY/WX    TMP DP  RH WIND       PRES   REMARKS
NEW YORK CITY  MOCLDY    61  44  53 VRB3      29.59F
PHILADELPHIA   MOCLDY    59  44  57 SW13      29.63F
PITTSBURGH     CLEAR     58  35  42 W20G30    29.78R
ROANOKE        CLEAR     61  49  64 SW5       29.87F
RICHMOND       CLEAR     60  44  55 SW12      29.75F
RALEIGH        CLEAR     54  43  66 SW3       29.87F

$$

ANZ530>537-260500-
MARINE OBSERVATIONS

STATION/POSITION TIME  TEMP    WIND        PRES
                       AIR SEA DIR/SP/G
                 (UTC) (F)     (DEG/KT/KT) (MB)
THOMAS PT LIGHT  0400   60 62  260/  8/  9 1006.7F
BALT KEY BRIDGE  0400   62     210/ 12/ 14 1004.6F
COVE POINT       0400   61     270/ 13/ 17 1006.3S
LEWISETTA        0400   60 60  240/ 11/ 13 1006.4S
SOLOMONS ISLAND  0400      63                N/A
PINEY POINT      0400          310/  5/  6   N/A

$$




USA.gov is the U.S. government's official web portal to all federal, state and local government web resources and services.